sat.trackr.live / text

‹ back to catalog

KUIPER-00263

NORAD 68586 · 2026-072P

PAYLOAD ACTIVE UNKNOWN

§ Identity

Operator
Country
US
Launch date
2026-04-04
Launch site
AFETR
Launch vehicle
Mass (kg)
RCS (m²)

External: N2YO · Heavens-Above · Gunter

§ Orbital elements

Epoch: 2026-09-19T23:54:19.717056Z

Period
97.30 min
Inclination
51.9017°
Eccentricity
0.0000743
Mean motion
14.79931728 rev/d
Perigee alt
629.0 km
Apogee alt
630.1 km
Semi-major
7,007.7 km
B*
2.6141e-4
RAAN
111.5068°
Arg perigee
111.4422°
Mean anomaly
248.6620°
Rev number
2,550

§ Raw data

KUIPER-002631 68586U 26072P   26262.99606154  .00001772  00000+0  26141-3 0  99912 68586  51.9017 111.5068 0000743 111.4422 248.6620 14.79931728 25500

JSON: /api/v1/satellites/68586 · /tle

For live sub-satellite position, see the globe view (requires WebGL).

§ Visibility from observer

Set your observer location to see the next 7 days of passes ≥ 10°. The values pass through the URL so the page stays shareable.

No JS? Fill the form by hand. The geolocation button needs JavaScript.